Rbgn^[z[y[W
メイン
   新天体発見情報
     Comet C/2019 JU6 (ATLAS)
投稿するにはまず登録を

フラット表示 前のトピック | 次のトピック
投稿者 スレッド
佐藤裕久
投稿日時: 2019-5-31 23:25
モデレータ
登録日: 2005-6-12
居住地: 日本
投稿: 2505
オンライン
Comet C/2019 JU6 (ATLAS)

5月12日UT、小惑星状天体が、Haleakalaにある小惑星地球衝突最終警報システム Asteroid Terrestrial-
impact Last Alert System (ATLAS)調査プログラムのコースに0.5-m 反射望遠鏡で得たCCD画像から発見
された。小惑星センターによって2019 JU6の仮符号がつけられた(MPS 99664; 2日間のアークによる軌道
はMPEC 2019-J141を参照)。
佐藤英貴氏(東京都文京区, iTelescope 天文台, 0.43-m f/6.8 アストログラフ, Mayhill近郊, ニュー
メキシコ州, 遠隔操作、5月14.4日と15.4日UT、スタックイメージで、強く集光した12"〜15"のコマ見え
るが、尾はない。両日とも9".6の円形範囲で測定した光度は18.2等であった)らCCD位置観測者によって
彗星状と観測された。

発見位置は次のとおり、

     2019 UT             R.A. (2000) Decl.       Mag.
     May  12.57373   21 24 54.26   +20 28 23.7   18.8
          12.57655   21 24 53.95   +20 28 28.0   18.7
          12.58718   21 24 52.69   +20 28 39.6   19.1
          12.59235   21 24 52.03   +20 28 44.6   17.9

放物線軌道要素と位置推算表は次のとおり、

Orbital elements:
    C/2019 JU6 (ATLAS)
T 2019 May 31.90557 TT                                  MPCW
q   2.0466235            (2000.0)            P               Q
                   Peri.   94.79346     +0.23521198     -0.95238383
                   Node    21.65891     -0.95951589     -0.25935060
e   1.0            Incl.  148.28723     +0.15493410     -0.16031938
From 53 observations 2019 May 12-22.

Ephemeris:
    C/2019 JU6 (ATLAS)
Date    TT    R. A. (2000) Decl.     Delta      r     Elong.  Phase   m1
2019 04 24    21 48 14.0 +15 25 54   2.3727  2.0966    61.9    25.0  19.6
...
2019 05 09    21 31 03.0 +19 23 40   2.0301  2.0651    77.7    28.5  19.2
...
2019 05 17    21 15 49.1 +21 52 43   1.8468  2.0545    86.7    29.4  19.0
...
2019 05 23    21 00 23.7 +23 53 04   1.7147  2.0494    93.9    29.5  18.8
2019 05 24    20 57 25.4 +24 13 36   1.6934  2.0488    95.1    29.5  18.8
2019 05 25    20 54 19.5 +24 34 12   1.6724  2.0483    96.3    29.4  18.7
...
2019 05 31    20 32 51.4 +26 37 13   1.5535  2.0467   103.7    28.8  18.6
...
2019 06 08    19 55 34.2 +29 04 23   1.4207  2.0484   113.4    27.0  18.4
...
2019 06 23    18 21 06.0 +30 31 33   1.2966  2.0638   125.9    23.5  18.2

     Initially reported (and designated on MPS 996641) as an asteroid,
subsquent observation has shown the object to be a comet.  L. Buzzi (204,
May 14) reported a 12" coma and a faint 12" tail in P.A. ~230 in 30 stacked
30-s exposures.  B. Lutkenhoner (G40, May 14) described a 5".2 FWHM (compared
to 4".4 for field stars) and a faint tail at least 13" long in P.A. 230 in
15 stacked 50-s exposures.  Lutkenhoner (G40, May 18) noted a 6".4 FWHM
(compared to 3".7 for field stars).  R. Wainscoat (F52, May 21) suspected
that the images showed cometary features.

(CBET 4631、MPEC 2019-K18)

フラット表示 前のトピック | 次のトピック

題名 投稿者 日時
 » Comet C/2019 JU6 (ATLAS) 佐藤裕久 2019-5-31 23:25

投稿するにはまず登録を
 
© 1999 Tsutomu Seki.